Regional Weather Roundup
Issued by NWS Albany, NY

Home | Current Version | Previous Version | Text Only | Print | Product List | Glossary On
Versions: 1 2 3 4 5 6 7 8 9 10 11 12 13 14 15 16 17 18 19 20 21 22 23 24 25 26 27
000
ASUS41 KALY 160410
RWRALY

NEW YORK STATE HOURLY WEATHER ROUNDUP
NATIONAL WEATHER SERVICE ALBANY NY
1200 AM EDT WED APR 16 2014

NOTE: "FAIR" INDICATES FEW OR NO CLOUDS BELOW 12,000 FEET WITH NO
SIGNIFICANT WEATHER AND/OR NO OBSTRUCTIONS TO VISIBILITY.

NYZ032-033-038>043-046>054-057>066-NYZ062>081-160500-
EAST


CITY           SKY/WX    TMP DP  RH WIND       PRES   REMARKS
ALBANY         LGT SNOW  29  25  85 NW12      29.95R FOG     WCI  19
GLENS FALLS    LGT SNOW  30  28  92 W6        29.91R VSB 1   WCI  24
POUGHKEEPSIE   LGT SNOW  34  31  88 NW10G20   29.92R VSB 3/4 WCI  26
NEWBURGH       LGT SNOW  32  30  93 NW18G28   29.92R WCI  20
MONTGOMERY     LGT RAIN  33  30  88 NW7       29.92S WCI  27
WHITE PLAINS   LGT SNOW  33  31  92 NW10      29.87R VSB 3/4 WCI  25
ISLIP          LGT RAIN  39  35  86 NW17G25   29.82R WCI  30
NEW YORK CITY  LGT SNOW  36  30  80 NW18G25   29.91S FOG     WCI  25
CENTRAL PARK   LGT SNOW  34  31  88 NW10G21   29.94R FOG     WCI  26
$$

NYZ005>009-017-018-044>046-055-056-160500-
CENTRAL


CITY           SKY/WX    TMP DP  RH WIND       PRES   REMARKS
FULTON         CLOUDY    28  16  60 W20G28    30.09R WCI  15
SYRACUSE       FLURRIES  27  18  69 NW23G29   30.08R WCI  12
ROME           FLURRIES  27  22  81 W16       30.04R WCI  15
ELMIRA         MOCLDY    27  15  61 NW10G20   30.08R WCI  17
BINGHAMTON     CLOUDY    25  17  72 NW15G23   29.96R WCI  13
MONTICELLO     CLOUDY    28  25  86 NW15G22   29.90R WCI  17
$$

NYZ026>034-041>043-160500-
NORTH


CITY           SKY/WX    TMP DP  RH WIND       PRES   REMARKS
WATERTOWN      CLOUDY    28  20  71 N10       30.07R WCI  19
FORT DRUM      NOT AVBL
MASSENA        CLOUDY    24  15  68 W10G20    30.04R WCI  14
SARANAC LAKE   LGT SNOW  18  13  80 W9G23     29.88R WCI   7
PLATTSBURGH    CLOUDY    27  22  81 NW7       29.94R WCI  19
$$

NYZ001>004-010>016-019>021-160500-
WEST


CITY           SKY/WX    TMP DP  RH WIND       PRES   REMARKS
NIAGARA FALLS  PTCLDY    24  11  57 NW18G28   30.18R WCI  10
BUFFALO        PTCLDY    25  11  55 W13G24    30.17R WCI  14
DUNKIRK        CLEAR     25  14  63 NW13      30.21R WCI  14
JAMESTOWN      PTCLDY    19  12  73 CALM      30.12S
WELLSVILLE     FLURRIES  20  10  65 NW18G29   30.05R WCI   5
ROCHESTER      CLOUDY    27  12  53 W18G26    30.14R WCI  14
PENN YAN       FLURRIES  26  18  71 NW12G22   30.09R WCI  16
$$

             KEY
       WCI = WIND CHILL INDEX
       VSB = VISIBILITY
       HX  = HEAT INDEX
$$



USA.gov is the U.S. government's official web portal to all federal, state and local government web resources and services.